This is the latest recevied weather packets stored in our database for station/object YO6IKB-10. If no packets are shown the sender has not sent any weather packets the latest 1 day(s).
| Time | Temp. | Humidity | Pressure | Rain* | Wind** | Luminosity | Snow |
|---|---|---|---|---|---|---|---|
| 1778095781 | 17.78° C | 52% | 1009.4 hPa | 0 mm | - | - | - |
| 1778093979 | 18.33° C | 51% | 1009.1 hPa | 0 mm | - | - | - |
| 1778093679 | 18.33° C | 50% | 1009.1 hPa | 0 mm | - | - | - |
| 1778092778 | 18.89° C | 49% | 1008.9 hPa | 0 mm | - | - | - |
| 1778091577 | 19.44° C | 47% | 1008.9 hPa | 0 mm | - | - | - |
| 1778090676 | 19.44° C | 46% | 1009 hPa | 0 mm | - | - | - |
| 1778090075 | 20° C | 46% | 1009 hPa | 0 mm | - | - | - |
| 1778089775 | 20° C | 45% | 1009 hPa | 0 mm | - | - | - |
| 1778088874 | -1.11° C | 43% | 1009 hPa | 0 mm | - | - | - |
| 1778088574 | 21.11° C | 42% | 1009 hPa | 0 mm | - | - | - |
| 1778087673 | 21.67° C | 40% | 1009.1 hPa | 0 mm | - | - | - |
| 1778086772 | 22.78° C | 38% | 1009 hPa | 0 mm | - | - | - |
| 1778086472 | 22.78° C | 38% | 1009 hPa | 0 mm | - | - | - |
| 1778085571 | 22.78° C | 38% | 1009 hPa | 0 mm | - | - | - |
| 1778084670 | 23.33° C | 40% | 1009.1 hPa | 0 mm | - | - | - |
| 1778083469 | 23.89° C | 39% | 1009.1 hPa | 0 mm | - | - | - |
| 1778082568 | 25° C | 36% | 1009 hPa | 0 mm | - | - | - |
| 1778081367 | 26.67° C | 34% | 1009 hPa | 0 mm | - | - | - |
| 1778080766 | 27.78° C | 33% | 1009 hPa | 0 mm | - | - | - |
| 1778080466 | 28.33° C | 34% | 1009 hPa | 0 mm | - | - | - |
| 1778079565 | 27.22° C | 36% | 1009 hPa | 0 mm | - | - | - |
| 1778078364 | 27.22° C | 35% | 1009 hPa | 0 mm | - | - | - |
| 1778077463 | 26.11° C | 36% | 1009 hPa | 0 mm | - | - | - |
| 1778076562 | 26.11° C | 37% | 1008.9 hPa | 0 mm | - | - | - |
| 1778076262 | 26.11° C | 37% | 1009 hPa | 0 mm | - | - | - |
* Rain latest hour (hover to see other rain measurements)
** Current wind speed in m/s (hover to see current wind gust speed)